Location: Unspecified
(0.0000°N, 0.0000°E)
Time: 20:58:02
(UTC+00:00)

OTV 5 (USA 277) - Visible Passes

Search period start: 19 September 2018 00:00
Search period end: 29 September 2018 00:00
Orbit: 387 x 394 km, 54.5° (Epoch: 08 September)

Date Brightness Start Highest point End Pass type
(mag) Time Alt. Az. Time Alt. Az. Time Alt. Az.
19 Sep ? 05:06:58 10° S 05:09:24 20° ESE 05:11:49 10° ENE visible
19 Sep ? 18:14:43 10° WNW 18:16:55 18° WSW 18:19:08 10° SSW visible
21 Sep ? 04:49:46 12° SSW 04:52:35 58° ESE 04:55:44 10° NE visible
22 Sep ? 03:57:09 15° ESE 03:57:09 15° ESE 03:58:25 10° E visible
23 Sep ? 04:36:54 28° N 04:36:54 28° N 04:38:47 10° NNE visible
